Regional Weather Roundup
Issued by NWS

Home | Current Version | Previous Version | Graphics & Text | Print | Product List | Glossary On
Versions: 1 2 3 4 5 6 7 8 9 10 11 12 13 14 15 16 17 18 19 20 21 22 23 24 25 26 27 28 29 30 31 32 33 34 35 36 37 38 39 40 41 42 43 44 45 46 47 48 49 50
000
ASUS43 KLSX 241807
RWRMO
STLRWRMO ALL

WEATHER SUMMARY FOR MISSOURI
NATIONAL WEATHER SERVICE SPRINGFIELD MO
100 PM CDT WED MAY 24 2017

NOTE: "FAIR" INDICATES FEW OR NO CLOUDS BELOW 12,000 FEET WITH NO
       SIGNIFICANT WEATHER AND/OR OBSTRUCTIONS TO VISIBILITY.
       CURRENT SKY AND/OR WEATHER CONDITIONS ARE NOT AVAILABLE FOR
       CHILLICOTHE AND FARMINGTON.

MOZ001>031-035>038-043-044-053-054-241900-
...NORTHERN AND WESTERN MISSOURI...

CITY           SKY/WX    TMP DP  RH WIND       PRES   REMARKS
KANSAS CTY INT CLOUDY    61  49  64 N14       29.69F
6HR MIN TEMP:  50; 6HR MAX TEMP:  61; 6HR PCP: TRACE;

KANSAS C DTWN  CLOUDY    62  49  62 N10G20    29.68F
6HR MIN TEMP:  51; 6HR MAX TEMP:  63; 6HR PCP: TRACE;

LEE`S SUMMIT   CLOUDY    58  51  78 N9        29.69S
6HR MIN TEMP:  49; 6HR MAX TEMP:  58; 6HR PCP:  0.01;

ST JOSEPH      CLOUDY    63  50  62 N15       29.70F
6HR MIN TEMP:  51; 6HR MAX TEMP:  63;

CHILLICOTHE      N/A     64  52  64 N8        29.66F
6HR MIN TEMP:  49; 6HR MAX TEMP:  64;

KIRKSVILLE     CLOUDY    62  49  62 N12       29.63F
6HR MIN TEMP:  47; 6HR MAX TEMP:  64;


$$
MOZ066>068-077>081-088>096-101>105-241900-
...SOUTHWEST MISSOURI...

CITY           SKY/WX    TMP DP  RH WIND       PRES   REMARKS
SPRINGFIELD    CLOUDY    57  46  66 NW10G18   29.67F
6HR MIN TEMP:  52; 6HR MAX TEMP:  59;

JOPLIN         CLOUDY    63  49  60 NW15G21   29.72S
6HR MIN TEMP:  52; 6HR MAX TEMP:  64;

BRANSON        CLOUDY    57  45  62 NW6G16    29.69S

$$
MOZ032>034-039>042-045>050-055>058-069>072-241900-
...CENTRAL MISSOURI...

CITY           SKY/WX    TMP DP  RH WIND       PRES   REMARKS
COLUMBIA       CLOUDY    61  50  67 NW13      29.64S
6HR MIN TEMP:  49; 6HR MAX TEMP:  61;

JEFFERSON CITY PTSUNNY   62  47  57 NW14      29.63S
6HR MIN TEMP:  53; 6HR MAX TEMP:  63;

ROLLA          LGT RAIN  57  49  74 W12       29.62R
6HR MIN TEMP:  50; 6HR MAX TEMP:  60; 6HR PCP: TRACE;

SEDALIA        PTSUNNY   62  52  69 NW10      29.66F
6HR MIN TEMP:  50; 6HR MAX TEMP:  62; 6HR PCP: TRACE;

WHITEMAN AFB   PTSUNNY   57  57 100 N9        29.65F
WARRENSBURG    CLOUDY    57  52  82 NW7       29.67S
OSAGE BEACH    CLOUDY    57  50  77 W6        29.65F

$$
MOZ051-052-059>065-241900-
...EAST CENTRAL MISSOURI...

CITY           SKY/WX    TMP DP  RH WIND       PRES   REMARKS
ST LOUIS INTL  PTSUNNY   69  49  48 NW10      29.58S
6HR MIN TEMP:  55; 6HR MAX TEMP:  69;

SPIRIT OF STL  PTSUNNY   64  48  56 N10       29.57F
6HR MIN TEMP:  52; 6HR MAX TEMP:  67;

ST CHARLES     PTSUNNY   63  50  62 NW13G18   29.57S
6HR MIN TEMP:  54; 6HR MAX TEMP:  65;


$$
MOZ072>076-082>087-097>100-106>115-241900-
...SOUTH CENTRAL AND SOUTHEAST MISSOURI...

CITY           SKY/WX    TMP DP  RH WIND       PRES   REMARKS
CAPE GIRARDEAU CLOUDY    66  47  50 NW14      29.54F
6HR MIN TEMP:  58; 6HR MAX TEMP:  68;

FARMINGTON     CLOUDY    61  48  62 N8        29.59S
6HR MIN TEMP:  51; 6HR MAX TEMP:  62; 6HR PCP: TRACE;

POPLAR BLUFF   PTSUNNY   67  51  56 NW13      29.57F
6HR MIN TEMP:  56; 6HR MAX TEMP:  67;

WEST PLAINS    CLOUDY    61  45  55 NW17G25   29.64S
6HR MIN TEMP:  52; 6HR MAX TEMP:  62;


$$




USA.gov is the U.S. government's official web portal to all federal, state and local government web resources and services.